Regional Weather Roundup
Issued by NWS

Home | Current Version | Previous Version | Graphics & Text | Print | Product List | Glossary Off
Versions: 1 2 3 4 5 6 7 8 9 10 11 12 13 14 15 16 17 18 19 20 21 22 23 24 25 26 27 28 29 30 31 32 33 34 35 36 37 38 39 40 41 42 43 44 45 46 47 48 49 50

000
ASUS43 KLOT 301810
RWRIL

ILLINOIS REGIONAL WEATHER ROUNDUP
NATIONAL WEATHER SERVICE CHICAGO/ROMEOVILLE IL
100 PM CDT THU OCT 30 2014

NOTE: "FAIR" INDICATES FEW OR NO CLOUDS BELOW 12,000 FEET WITH NO
SIGNIFICANT WEATHER AND/OR OBSTRUCTIONS TO VISIBILITY.

* THESE STATIONS ARE NOT UNDER NWS QUALITY CONTROL. THEY ALSO MAY NOT
  REPORT WEATHER SUCH AS PRECIPITATION OR FOG.

ILZ001-002-007-009-015-016-024-301900-
NORTHWEST ILLINOIS

CITY           SKY/WX    TMP DP  RH WIND       PRES   REMARKS
MOLINE         CLOUDY    49  37  63 SE8       30.07F
6HR MIN TEMP:  32; 6HR MAX TEMP:  49;

STERLING*      CLOUDY    48  36  61 SW3       30.09F
SAVANNA*       CLOUDY    49  37  63 CALM      30.09F
$$

ILZ003-004-008-010-011-017-018-301900-
NORTH CENTRAL ILLINOIS

CITY           SKY/WX    TMP DP  RH WIND       PRES   REMARKS
ROCKFORD       CLOUDY    52  35  52 VRB3      30.10F
6HR MIN TEMP:  32; 6HR MAX TEMP:  52;

FREEPORT*      PTSUNNY   49  35  58 W8        30.10F
ROCHELLE*      CLOUDY    48  35  60 SW9       30.09F
DE KALB*       CLOUDY    47  35  61 SW10      30.09F
PERU*          PTSUNNY   47  37  66 SW5       30.11F
$$

ILZ005-006-012>014-019>023-301900-
NORTHEAST ILLINOIS

CITY           SKY/WX    TMP DP  RH WIND       PRES   REMARKS
CHICAGO-OHARE  CLOUDY    49  34  56 SW12G18   30.09F
6HR MIN TEMP:  34; 6HR MAX TEMP:  49;

CHICAGO-MIDWAY CLOUDY    51  35  54 SW10      30.10F
6HR MIN TEMP:  37; 6HR MAX TEMP:  51;

AURORA         CLOUDY    49  35  58 SW9       30.10F
6HR MIN TEMP:  29; 6HR MAX TEMP:  50;

LANSING*       MOSUNNY   51  36  56 SW10      30.11F
JOLIET*        CLOUDY    49  34  54 SW8       30.11F
WAUKEGAN       CLOUDY    49  34  56 VRB6      30.08F
6HR MIN TEMP:  32; 6HR MAX TEMP:  49;

DUPAGE AIRPORT CLOUDY    49  35  58 SW13      30.09F
6HR MIN TEMP:  31; 6HR MAX TEMP:  50;

WHEELING       PTSUNNY   51  33  50 SW9       30.11F
6HR MIN TEMP:  34; 6HR MAX TEMP:  51;

MORRIS*        CLOUDY    50  37  62 SW7       30.10F
ROMEOVILLE*    PTSUNNY   50  34  53 S7        30.09F
NORTHERLY ISL    N/A     49  32  52 S10         N/A
$$

LMZ740>746-301900-
SOUTHERN LAKE MICHIGAN

STATION/POSITION SKY/WX   TEMP    WIND        PRES    VSBY  WAVE
                          AIR SEA DIR/SP/G                  HT/PER
                          (F)     (DEG/KT/KT) (MB)    (MI)  (FT/S)
SOUTHERN BUOY              47 53  240/ 12/ 16 1019.4F         2/ 3
WAUKEGAN HARBOR            49     230/ 11/ 14   N/A
HARRISON CRIB              47     200/ 12/ 15   N/A
BURNHAM HARBOR             50     200/  7/ 14   N/A
CALUMET HARBOR             49     200/ 10/ 13 1018.1F
MICHIGAN CITY              48     190/ 11/ 13   N/A
$$

ILZ025>027-034>036-040-047-049-050-058-095>099-301900-
WEST-CENTRAL ILLINOIS

CITY           SKY/WX    TMP DP  RH WIND       PRES   REMARKS
QUINCY         CLOUDY    51  40  65 S12G22    30.00F
GALESBURG*     CLOUDY    44  39  83 E5        30.08F
MACOMB*        CLOUDY    50  40  68 SE10      30.08F
JACKSONVILLE*  LGT RAIN  51  43  74 S10       30.06F
PITTSFIELD*    LGT RAIN  50  45  82 SE8       30.05F
$$

ILZ028>032-037-038-041>044-048-051>054-059>061-301900-
CENTRAL ILLINOIS

CITY           SKY/WX    TMP DP  RH WIND       PRES   REMARKS
PONTIAC        CLOUDY    49  37  62 S5        30.12F
BLOOMINGTON    PTSUNNY   51  39  63 S9        30.10F
DECATUR        CLOUDY    53  38  56 S8        30.10F
PEORIA         CLOUDY    50  38  63 SE3       30.09F
6HR MIN TEMP:  37; 6HR MAX TEMP:  50;

LACON*         CLOUDY    47  36  65 CALM      30.09F
LINCOLN*       CLOUDY    52  38  59 S8        30.08F
SPRINGFIELD    CLOUDY    52  39  61 S7        30.10F
6HR MIN TEMP:  36; 6HR MAX TEMP:  53; 6HR PCP: TRACE;

TAYLORVILLE    CLOUDY    52  37  58 S7        30.09F
$$

ILZ033-039-045-046-055>057-062-063-301900-
EAST-CENTRAL ILLINOIS

CITY           SKY/WX    TMP DP  RH WIND       PRES   REMARKS
CHAMPAIGN      MOSUNNY   53  35  50 S8        30.10F
DANVILLE*      SUNNY     51  34  52 S10       30.09F HAZE
RANTOUL*       MOSUNNY   53  35  51 S8        30.10F
MATTOON        PTSUNNY   52  36  54 SW6       30.10F
PARIS*         SUNNY     53  36  51 SW6       30.12F
$$

ILZ079-100>102-301900-
SOUTHWEST ILLINOIS

CITY           SKY/WX    TMP DP  RH WIND       PRES   REMARKS
ALTON          CLOUDY    55  36  47 S12       30.09
BELLEVILLE     MOSUNNY   56  42  60 S10       30.08F
CAHOKIA*       MOSUNNY   59  40  49 S9        30.08F
SPARTA*        CLOUDY    58  40  51 S7        30.11F
$$

ILZ064>066-069>071-074>076-080>082-084>086-088>090-092>094-301900-
SOUTH-CENTRAL ILLINOIS

CITY           SKY/WX    TMP DP  RH WIND       PRES   REMARKS
CARBONDALE     CLOUDY    60  38  43 SW6       30.11F
6HR MIN TEMP:  31; 6HR MAX TEMP:  60;

CAIRO*         SUNNY     62  39  42 SW7       30.13F
EFFINGHAM*     SUNNY     54  34  46 S5        30.11F
MARION         PTSUNNY   59  39  47 SW9       30.13F
MT. VERNON     MOSUNNY   57  39  51 S8        30.12F
CENTRALIA*     MOSUNNY   55  38  54 S8        30.11F
SALEM*         CLOUDY    59  40  49 S3        30.11F
METROPOLIS*    SUNNY     59  40  48 S6        30.12F
$$

ILZ067-068-072-073-078-083-087-091-301900-
SOUTHEAST ILLINOIS

CITY           SKY/WX    TMP DP  RH WIND       PRES   REMARKS
LAWRENCEVILLE  SUNNY     54  31  41 VRB6      30.13F
FLORA*         SUNNY     55  37  51 S6        30.12F
FAIRFIELD*     MOSUNNY   56  37  49 CALM      30.11F
HARRISBURG*    MOSUNNY   58  38  47 SE3       30.13F
ROBINSON*      MOSUNNY   55  36  48 CALM      30.14F
CARMI*         SUNNY     59  40  48 S5        30.12F
$$

ABBREVIATIONS USED IN REMARKS
   TC - TEMPERATURE IN CELSIUS
  WCI - WIND CHILL INDEX
   HX - HEAT INDEX
  VSB - VISIBILITY
$$




USA.gov is the U.S. government's official web portal to all federal, state and local government web resources and services.